Temp
70 71 70 65 53 51 47 57 62 62 62 65 69 65 59 60 60 53 67 71 71 70 73 74 74 75 75 74 74 74 75 76 76 76 76 76 76 76 75 75 75 75 75 75 75 74 74 73 72
69 74 67 59 49 43 51 64 63 63 66 68 70 66 62 57 67 64 65 72 72 72 73 73 72 74 74 74 74 74 75 75 75 75 76 76 75 75 75 75 74 75 75 74 74 74 73 72 72
73 74 59 54 49 45 51 64 66 64 67 67 65 68 63 60 66 66 72 73 72 71 73 72 72 74 74 74 74 74 74 75 75 75 75 75 75 74 74 74 74 74 74 74 75 74 73 72 72
69 65 61 51 49 55 58 66 69 65 66 71 65 59 65 71 68 70 74 74 72 70 71 70 72 73 74 74 74 74 74 75 75 75 74 74 74 74 73 73 73 73 74 74 73 73 72 72 71
66 59 51 50 52 59 65 70 67 63 64 66 65 58 60 67 74 73 73 74 70 68 69 70 71 73 73 74 74 74 74 74 74 74 74 73 73 73 73 73 73 73 73 72 72 72 71 71 71
57 58 47 46 50 60 65 72 68 66 66 65 61 59 59 70 71 70 72 70 70 68 69 71 68 70 71 72 73 73 73 73 73 73 73 73 72 72 72 72 72 72 72 72 72 71 71 70 70
54 51 47 51 53 57 65 72 65 67 66 65 67 56 61 64 68 70 73 71 70 69 68 68 68 68 67 69 70 71 72 72 72 72 71 71 71 71 71 71 72 72 72 71 71 70 70 70 69
56 52 49 52 52 55 64 65 70 68 66 74 68 55 58 64 68 70 73 72 70 68 67 66 66 67 66 66 65 67 68 69 69 69 68 67 68 68 68 67 69 71 71 70 70 70 70 69 68
59 46 46 52 54 58 66 63 68 68 69 70 67 63 65 70 68 66 66 67 68 70 70 67 66 65 65 65 63 64 65 66 66 65 64 63 65 66 66 65 67 69 69 70 70 70 68 66 65
53 44 50 60 62 59 64 62 65 64 63 62 60 65 69 69 66 65 63 63 65 68 70 69 67 66 67 70 64 64 65 64 65 65 64 65 66 66 67 63 64 67 67 70 71 69 65 64 63
56 47 58 62 63 63 63 63 65 63 58 64 59 60 64 66 63 66 64 65 65 70 71 68 66 68 70 67 64 62 62 62 63 65 65 66 67 64 66 63 64 61 62 67 68 66 64 61 63
50 56 58 61 62 62 61 65 63 64 65 70 65 64 63 63 64 65 64 64 65 67 70 69 68 68 66 67 65 64 63 63 62 64 67 65 63 65 66 62 62 62 62 62 64 62 63 59 61
51 53 58 60 60 60 64 61 61 63 68 69 65 64 64 64 65 66 67 67 67 66 65 68 67 69 68 66 64 64 63 63 64 65 67 66 65 64 63 64 62 61 61 60 59 59 59 61 61
55 56 56 58 58 59 58 61 60 63 65 64 63 61 63 63 63 64 66 66 66 68 66 67 67 68 68 66 64 63 64 64 64 65 66 67 68 67 67 62 61 60 60 59 59 59 58 59 59
55 50 54 55 57 57 61 56 57 64 65 61 60 60 62 63 63 66 67 68 69 69 68 67 68 67 67 66 64 65 65 65 64 64 66 66 68 69 66 60 59 59 60 59 62 61 61 59 59
50 48 43 54 57 59 56 48 60 64 62 59 57 58 60 62 63 66 66 70 70 68 68 68 72 68 67 64 64 66 64 64 63 63 63 64 65 68 64 59 58 59 59 58 59 60 59 58 58
46 40 42 48 59 58 54 49 61 63 63 59 57 57 59 60 63 66 67 69 68 69 69 68 67 66 66 65 65 64 64 63 62 61 61 62 63 63 60 58 57 59 57 57 58 58 60 57 55
40 41 45 44 52 56 51 53 60 61 63 60 59 59 59 60 63 67 68 70 69 68 69 69 68 66 66 65 63 61 62 62 63 60 60 61 61 61 58 57 57 57 56 55 55 56 59 57 51
47 45 44 47 55 54 52 52 58 62 62 61 59 59 59 61 66 68 69 69 68 68 68 68 66 65 66 64 61 60 60 58 59 56 58 59 59 59 58 55 55 55 54 54 54 54 53 50 50
47 44 44 48 53 53 51 53 59 60 60 63 62 61 61 62 63 65 64 66 68 68 68 67 68 66 66 66 60 60 58 58 54 54 55 56 57 57 57 54 53 53 52 52 53 53 51 50 49
45 43 45 46 47 51 48 47 53 57 58 61 64 66 64 63 63 64 66 65 67 66 67 67 68 66 67 65 62 58 55 53 51 50 50 53 56 56 56 54 52 51 51 50 51 51 51 48 47
41 50 49 46 43 38 48 38 51 54 55 58 62 62 63 63 66 66 66 66 65 68 68 68 68 67 67 64 63 60 59 53 51 49 50 51 54 54 55 53 53 49 48 48 48 50 49 48 45
45 51 49 47 43 41 41 39 47 56 53 56 61 58 63 65 66 66 66 67 68 68 66 68 67 67 67 65 64 60 57 53 50 49 49 50 51 54 53 52 49 49 48 46 47 46 46 46 44
46 44 42 41 43 33 40 39 42 50 55 57 61 62 61 66 66 68 68 68 67 66 65 66 66 66 67 65 63 60 56 52 49 49 49 49 50 51 51 50 47 48 45 45 44 44 44 43 43
45 42 30 29 30 31 42 38 46 53 61 62 60 62 61 65 66 66 66 65 65 61 63 65 65 65 65 65 61 60 57 54 52 50 50 48 49 48 47 47 46 45 44 44 43 42 41 41 41
43 42 32 27 28 30 39 36 44 57 60 60 65 65 66 61 66 66 66 66 66 65 64 65 65 64 64 65 61 60 59 57 53 52 52 52 52 50 48 46 46 45 44 43 42 40 39 39 38
38 37 41 33 30 31 36 43 52 53 54 54 55 57 62 65 62 66 66 67 66 65 65 65 65 65 63 65 63 62 59 57 56 55 54 54 51 49 47 47 45 43 43 42 41 39 38 37 36
43 43 34 33 28 27 29 32 40 45 52 53 53 55 61 63 65 61 65 66 66 66 65 66 65 63 62 64 62 59 58 57 56 56 54 51 50 50 47 44 44 42 42 41 40 37 37 37 34
37 35 37 38 34 30 26 33 42 44 49 54 54 55 56 57 57 57 54 56 57 57 57 58 58 57 58 58 57 56 55 55 54 54 53 52 49 48 46 45 43 42 41 40 38 37 37 36 35
40 38 39 33 30 31 30 35 47 45 47 49 51 54 53 52 52 52 49 49 50 52 52 53 53 54 55 54 54 55 54 53 53 53 52 50 48 45 46 44 43 42 41 39 38 37 37 35 33
MSLP
1014.51 1014.03 1014.30 1014.81 1015.92 1015.75 1014.91 1013.32 1012.25 1011.32 1011.37 1011.44 1011.32 1012.37 1013.88 1014.83 1015.29 1016.62 1016.79 1017.00 1017.76 1018.36 1018.80 1019.06 1019.28 1019.60 1019.91 1020.16 1020.35 1020.51 1020.66 1020.75 1020.90 1021.00 1021.37 1021.61 1021.67 1021.74 1021.90 1022.03 1022.10 1022.11 1022.08 1022.13 1022.15 1022.22 1022.23 1022.26 1022.19
1014.36 1014.13 1014.45 1015.32 1015.88 1015.54 1014.44 1013.29 1012.34 1011.17 1011.31 1011.23 1011.84 1013.18 1013.88 1015.42 1015.42 1016.37 1017.01 1017.34 1017.78 1018.37 1018.75 1019.27 1019.54 1019.71 1020.04 1020.39 1020.61 1020.69 1020.78 1020.96 1021.12 1021.32 1021.39 1021.60 1021.79 1021.95 1022.13 1022.27 1022.32 1022.31 1022.26 1022.38 1022.37 1022.33 1022.40 1022.38 1022.29
1014.20 1014.24 1014.88 1015.62 1015.39 1014.83 1013.75 1012.69 1012.14 1011.40 1011.02 1011.39 1012.50 1013.27 1014.39 1015.47 1015.84 1016.20 1016.71 1017.39 1017.95 1018.63 1018.93 1019.31 1019.67 1019.90 1020.11 1020.40 1020.74 1020.98 1021.08 1021.20 1021.35 1021.51 1021.66 1021.69 1021.96 1022.24 1022.37 1022.55 1022.54 1022.52 1022.51 1022.49 1022.43 1022.50 1022.54 1022.56 1022.51
1014.30 1014.77 1015.41 1015.58 1014.88 1013.78 1012.87 1011.99 1011.83 1011.35 1011.52 1011.67 1012.80 1014.41 1014.93 1014.96 1015.60 1015.95 1016.69 1017.15 1018.00 1018.75 1019.14 1019.50 1019.70 1020.00 1020.28 1020.60 1020.80 1021.06 1021.27 1021.38 1021.54 1021.74 1021.91 1022.03 1022.29 1022.46 1022.64 1022.74 1022.76 1022.71 1022.67 1022.66 1022.78 1022.89 1022.85 1022.80 1022.76
1014.59 1015.25 1015.62 1015.34 1014.54 1013.22 1012.43 1011.95 1012.01 1011.50 1011.64 1012.26 1012.78 1014.83 1015.36 1015.58 1015.48 1016.15 1016.70 1017.28 1018.13 1018.92 1019.32 1019.69 1019.89 1020.16 1020.39 1020.64 1020.88 1021.10 1021.41 1021.59 1021.83 1021.97 1022.16 1022.30 1022.42 1022.58 1022.75 1022.84 1022.85 1022.86 1022.89 1022.98 1023.06 1023.08 1023.05 1023.00 1022.99
1015.38 1015.33 1015.69 1015.16 1014.34 1012.94 1012.22 1011.41 1011.59 1011.34 1011.65 1012.53 1013.67 1014.76 1015.86 1015.86 1015.92 1016.42 1016.81 1017.59 1018.24 1019.00 1019.39 1019.81 1020.09 1020.24 1020.50 1020.74 1020.99 1021.23 1021.53 1021.76 1021.98 1022.16 1022.36 1022.50 1022.55 1022.65 1022.81 1022.94 1022.97 1023.02 1023.13 1023.14 1023.24 1023.28 1023.29 1023.28 1023.29
1015.56 1015.58 1015.51 1014.76 1014.11 1012.98 1011.78 1010.99 1010.97 1011.03 1011.44 1012.12 1013.03 1015.09 1016.13 1016.22 1016.17 1016.41 1016.96 1017.69 1018.32 1018.98 1019.48 1019.94 1020.25 1020.43 1020.72 1020.90 1021.11 1021.34 1021.68 1021.94 1022.10 1022.26 1022.45 1022.58 1022.71 1022.86 1023.02 1023.07 1023.13 1023.19 1023.29 1023.34 1023.41 1023.52 1023.50 1023.55 1023.47
1015.64 1015.71 1015.49 1014.61 1013.95 1012.67 1011.06 1010.66 1010.11 1010.42 1010.98 1011.51 1012.06 1014.44 1015.81 1015.81 1016.05 1016.47 1017.04 1017.62 1018.37 1018.94 1019.51 1020.02 1020.38 1020.59 1020.90 1021.14 1021.31 1021.50 1021.79 1022.01 1022.19 1022.38 1022.57 1022.76 1022.88 1023.04 1023.16 1023.27 1023.28 1023.32 1023.40 1023.41 1023.39 1023.46 1023.59 1023.76 1023.72
1015.69 1016.05 1015.35 1014.29 1013.44 1012.24 1011.03 1010.75 1010.23 1010.10 1010.65 1011.43 1012.29 1013.18 1013.47 1014.88 1015.74 1016.59 1017.35 1017.75 1018.27 1018.92 1019.33 1019.92 1020.37 1020.70 1020.99 1021.31 1021.56 1021.70 1021.83 1022.05 1022.20 1022.43 1022.67 1022.93 1023.04 1023.06 1023.11 1023.25 1023.27 1023.38 1023.40 1023.37 1023.42 1023.55 1023.74 1024.05 1024.31
1016.02 1015.85 1014.70 1013.66 1012.61 1012.27 1011.57 1011.07 1010.47 1010.66 1011.12 1012.33 1012.95 1013.16 1013.58 1014.65 1015.51 1016.28 1016.93 1017.59 1017.91 1018.47 1019.01 1019.51 1020.12 1020.54 1020.86 1021.09 1021.56 1021.74 1021.83 1022.02 1022.17 1022.41 1022.70 1022.93 1022.99 1023.00 1023.02 1023.17 1023.24 1023.39 1023.39 1023.26 1023.44 1023.77 1024.01 1024.24 1024.75
1015.49 1015.08 1014.32 1013.33 1012.78 1012.63 1012.19 1011.18 1010.95 1010.88 1011.47 1011.73 1012.72 1013.70 1014.34 1014.84 1015.54 1015.98 1016.75 1017.24 1017.44 1017.99 1018.65 1019.30 1019.84 1020.24 1020.42 1020.89 1021.44 1021.68 1021.81 1022.01 1022.15 1022.27 1022.51 1022.65 1022.71 1022.86 1023.02 1023.31 1023.46 1023.47 1023.44 1023.42 1023.60 1024.01 1024.37 1024.62 1025.03
1015.48 1014.85 1014.33 1013.43 1012.95 1012.99 1012.62 1011.59 1011.27 1010.99 1010.91 1011.04 1012.30 1013.32 1014.31 1014.93 1015.22 1015.56 1016.34 1017.03 1017.37 1017.82 1018.23 1018.94 1019.29 1019.81 1020.14 1020.58 1021.14 1021.35 1021.64 1021.86 1022.15 1022.19 1022.27 1022.50 1022.71 1022.79 1023.02 1023.36 1023.41 1023.43 1023.63 1023.67 1023.94 1024.37 1024.86 1025.23 1025.54
1014.80 1014.84 1014.34 1013.66 1013.34 1013.32 1012.37 1011.74 1011.35 1011.24 1010.69 1011.39 1012.49 1013.41 1014.15 1014.75 1015.16 1015.54 1015.96 1016.77 1017.33 1017.72 1018.06 1018.50 1018.92 1019.36 1019.81 1020.28 1020.72 1021.02 1021.38 1021.61 1021.72 1021.94 1022.02 1022.27 1022.54 1022.81 1022.94 1023.10 1023.42 1023.56 1023.73 1024.11 1024.48 1024.92 1025.18 1025.53 1025.87
1014.11 1014.72 1014.40 1013.88 1013.61 1013.47 1012.93 1011.50 1011.40 1010.74 1010.74 1011.86 1012.69 1013.50 1014.01 1014.43 1014.79 1015.37 1015.80 1016.38 1016.95 1017.43 1017.86 1018.13 1018.63 1018.98 1019.45 1019.87 1020.39 1020.75 1021.08 1021.29 1021.57 1021.82 1021.99 1022.20 1022.31 1022.55 1022.77 1023.39 1023.58 1023.78 1023.84 1024.25 1024.68 1025.11 1025.53 1025.94 1026.25
1013.67 1014.34 1014.30 1013.68 1013.61 1013.46 1012.58 1011.38 1011.18 1010.57 1011.19 1011.98 1012.99 1013.46 1014.01 1014.25 1014.65 1014.84 1015.26 1015.71 1016.22 1016.83 1017.39 1017.87 1018.28 1018.66 1019.10 1019.56 1020.10 1020.48 1020.76 1021.06 1021.47 1021.71 1021.85 1022.06 1022.12 1022.44 1022.89 1023.46 1023.72 1023.86 1023.96 1024.30 1024.53 1025.01 1025.48 1025.96 1026.33
1013.21 1014.25 1013.50 1013.50 1013.70 1013.06 1012.85 1011.40 1010.58 1010.56 1011.33 1012.24 1012.89 1013.58 1013.93 1014.20 1014.25 1014.60 1014.98 1015.31 1015.85 1016.47 1016.97 1017.54 1018.01 1018.42 1018.89 1019.39 1019.84 1020.22 1020.56 1021.00 1021.33 1021.65 1021.89 1022.13 1022.31 1022.47 1022.89 1023.46 1023.80 1023.76 1024.00 1024.34 1024.54 1024.96 1025.61 1026.11 1026.50
1012.47 1012.46 1012.81 1013.31 1012.89 1012.55 1012.22 1011.32 1010.35 1010.44 1010.90 1011.86 1012.67 1013.14 1013.54 1014.04 1014.27 1014.30 1014.57 1014.91 1015.34 1015.83 1016.46 1017.14 1017.68 1018.19 1018.72 1019.18 1019.59 1020.03 1020.44 1020.79 1021.21 1021.55 1021.85 1022.17 1022.47 1022.60 1023.02 1023.46 1023.71 1023.69 1023.99 1024.26 1024.47 1025.06 1025.53 1026.20 1026.94
1010.39 1010.98 1011.85 1011.73 1012.21 1012.30 1011.86 1010.87 1010.37 1010.13 1010.29 1010.81 1011.69 1012.43 1012.79 1013.16 1013.11 1013.46 1014.03 1014.46 1014.92 1015.54 1016.09 1016.69 1017.38 1017.93 1018.51 1018.95 1019.55 1020.08 1020.49 1020.82 1021.08 1021.64 1021.86 1022.16 1022.45 1022.65 1022.92 1023.36 1023.56 1023.80 1024.08 1024.42 1024.71 1025.09 1025.50 1026.26 1027.22
1010.57 1011.26 1010.94 1011.42 1011.69 1011.90 1011.49 1010.94 1010.09 1009.78 1010.06 1009.99 1010.80 1011.57 1011.91 1012.11 1012.52 1013.06 1013.49 1013.99 1014.44 1015.12 1015.77 1016.25 1016.87 1017.54 1018.21 1018.78 1019.47 1020.13 1020.54 1020.98 1021.50 1021.75 1021.83 1022.19 1022.41 1022.55 1022.98 1023.33 1023.65 1023.93 1024.35 1024.54 1024.70 1025.20 1025.76 1026.72 1027.21
1010.25 1010.74 1010.71 1011.25 1011.36 1011.46 1011.16 1010.55 1009.44 1009.40 1009.16 1009.19 1009.52 1010.31 1010.66 1011.75 1012.09 1012.46 1012.93 1013.49 1013.87 1014.40 1015.02 1015.83 1016.35 1016.98 1017.69 1018.25 1018.87 1019.53 1020.16 1020.88 1021.67 1021.93 1022.12 1022.22 1022.46 1022.62 1023.01 1023.30 1023.56 1023.95 1024.40 1024.73 1024.97 1025.24 1025.99 1026.64 1026.96
1009.36 1009.68 1010.45 1010.66 1011.19 1011.93 1011.70 1010.59 1009.67 1009.07 1008.55 1008.57 1008.53 1008.88 1009.79 1010.39 1010.96 1011.62 1012.12 1012.67 1013.31 1013.80 1014.32 1015.00 1015.59 1016.38 1017.12 1017.88 1018.68 1019.60 1020.52 1021.38 1022.13 1022.22 1022.36 1022.50 1022.47 1022.65 1022.96 1023.34 1023.65 1024.00 1024.25 1024.72 1025.06 1025.38 1025.73 1026.40 1026.99
1009.67 1009.70 1010.29 1011.05 1011.82 1011.65 1012.03 1010.09 1009.41 1008.90 1008.21 1007.87 1007.98 1008.45 1009.05 1009.58 1010.03 1010.73 1011.43 1011.92 1012.32 1012.75 1013.65 1014.33 1015.08 1015.82 1016.51 1017.29 1018.06 1018.69 1019.51 1020.55 1021.11 1021.49 1022.03 1022.38 1022.47 1022.60 1022.85 1023.29 1023.73 1024.03 1024.37 1024.71 1024.97 1025.19 1025.56 1025.98 1026.76
1008.80 1009.34 1010.26 1011.13 1011.98 1011.92 1011.61 1011.24 1007.52 1007.95 1007.25 1006.68 1007.10 1007.63 1008.09 1008.33 1008.84 1009.48 1010.18 1010.62 1011.32 1012.26 1012.85 1013.45 1014.47 1015.31 1015.94 1016.52 1017.11 1017.99 1019.08 1019.85 1020.53 1021.22 1021.85 1022.27 1022.60 1022.57 1022.85 1023.08 1023.55 1023.96 1024.39 1024.72 1024.95 1025.28 1025.57 1025.83 1026.41
1009.42 1010.32 1011.38 1011.94 1011.83 1011.38 1010.61 1010.09 1007.58 1005.80 1004.87 1006.24 1006.32 1006.66 1007.04 1007.56 1007.99 1008.32 1008.87 1010.13 1011.03 1011.79 1012.44 1013.16 1013.89 1014.55 1015.30 1015.94 1016.54 1017.20 1018.24 1019.31 1020.28 1020.97 1021.62 1022.01 1022.45 1022.65 1022.81 1023.26 1023.56 1023.82 1024.32 1024.55 1024.90 1025.29 1025.66 1025.82 1026.26
1009.69 1009.73 1011.11 1011.53 1011.48 1010.61 1010.12 1009.82 1005.39 1004.85 1004.36 1004.49 1005.12 1005.59 1006.10 1006.70 1007.30 1007.70 1008.55 1009.44 1010.30 1011.02 1011.58 1012.37 1013.15 1013.82 1014.38 1015.08 1015.86 1016.54 1017.41 1018.38 1019.30 1020.15 1020.83 1021.58 1022.02 1022.44 1022.88 1023.14 1023.58 1023.92 1024.12 1024.55 1024.98 1025.39 1025.82 1026.01 1026.49
1009.15 1009.66 1010.06 1010.92 1011.17 1010.91 1010.24 1007.86 1005.38 1005.22 1004.40 1004.31 1004.28 1004.54 1004.92 1005.96 1006.48 1006.96 1007.41 1008.03 1008.82 1009.79 1010.61 1011.30 1012.03 1012.87 1013.55 1014.26 1015.17 1015.95 1016.78 1017.66 1018.78 1019.49 1020.09 1020.67 1021.06 1021.47 1022.21 1023.05 1023.25 1023.68 1024.02 1024.51 1025.05 1025.49 1026.01 1026.26 1026.69
1009.62 1010.12 1010.92 1011.22 1011.20 1010.77 1009.38 1007.46 1005.70 1004.77 1004.42 1004.48 1004.57 1004.82 1004.86 1005.31 1005.86 1006.21 1006.73 1007.31 1008.12 1009.02 1009.50 1010.14 1010.99 1012.00 1012.73 1013.31 1014.44 1015.29 1016.27 1016.95 1017.79 1018.81 1019.55 1020.14 1020.73 1021.18 1021.91 1022.80 1023.09 1023.76 1024.10 1024.57 1025.02 1025.51 1026.03 1026.53 1027.00
1009.40 1010.28 1010.94 1010.88 1011.02 1010.52 1009.13 1007.79 1006.30 1005.30 1004.57 1004.41 1004.62 1004.59 1004.79 1005.20 1005.51 1006.12 1006.48 1006.84 1007.62 1008.11 1008.94 1009.83 1010.59 1011.32 1012.21 1012.90 1013.67 1014.55 1015.50 1016.41 1017.20 1018.25 1019.05 1019.74 1020.46 1020.91 1021.62 1022.68 1022.93 1023.65 1024.05 1024.57 1025.08 1025.73 1026.23 1026.67 1027.25
1010.51 1010.46 1010.73 1010.76 1010.85 1010.11 1009.54 1007.96 1006.80 1006.40 1005.92 1005.00 1004.88 1005.04 1005.15 1005.34 1005.77 1006.23 1006.83 1007.06 1007.67 1008.42 1009.07 1009.66 1010.39 1011.35 1012.15 1012.66 1013.49 1014.32 1015.23 1016.08 1016.83 1017.69 1018.48 1019.12 1019.91 1020.55 1021.36 1022.30 1022.84 1023.42 1023.89 1024.45 1025.06 1025.75 1026.18 1026.69 1027.05
1010.80 1010.57 1010.34 1010.30 1010.99 1010.37 1009.88 1008.41 1007.20 1006.95 1006.77 1006.17 1005.76 1005.75 1006.18 1006.21 1006.49 1007.15 1007.52 1007.92 1008.32 1008.85 1009.52 1009.86 1010.33 1011.11 1012.03 1012.72 1013.26 1014.03 1015.00 1015.87 1016.64 1017.33 1018.05 1018.83 1019.58 1020.38 1021.08 1021.90 1022.57 1023.13 1023.68 1024.27 1024.88 1025.53 1025.96 1026.60 1027.13
Wind_Speed
5 2 2 3 3 4 3 6 4 4 5 3 6 11 10 3 3 4 5 17 18 13 10 12 16 17 17 17 17 15 15 16 17 16 18 16 15 15 17 17 15 14 16 15 15 15 15 15 13
4 2 3 2 4 1 3 6 5 3 7 7 10 7 7 4 4 10 9 16 17 14 12 12 15 17 17 16 15 15 16 16 16 17 16 16 15 17 17 16 15 14 14 14 13 14 15 14 12
3 3 4 2 3 5 3 2 6 3 6 5 5 7 5 4 6 6 15 17 16 12 12 12 14 16 16 17 16 15 15 15 16 16 16 18 18 17 16 15 14 13 13 12 13 14 13 12 11
2 4 4 1 5 6 4 7 5 7 4 7 7 7 4 6 6 9 17 18 15 13 12 13 16 16 16 17 17 16 17 16 16 15 16 16 16 15 14 13 13 12 12 12 12 12 12 11 10
2 2 2 3 5 4 1 12 7 4 6 6 6 2 5 3 14 15 16 13 16 12 11 11 14 15 14 17 17 16 16 17 16 16 15 15 15 14 13 12 11 11 11 11 11 11 10 10 10
2 2 1 4 5 5 5 16 6 6 5 8 8 6 3 9 15 10 12 15 14 14 11 11 11 12 13 15 15 15 15 15 15 15 14 14 13 12 12 12 11 11 10 9 9 8 8 9 11
3 4 4 4 3 7 5 9 8 8 7 6 13 6 6 6 9 9 13 16 15 13 11 9 8 10 10 11 11 14 14 14 13 13 13 12 11 11 11 10 10 9 8 7 7 7 8 10 10
1 4 2 4 5 7 3 3 6 9 7 9 10 9 9 10 10 9 14 14 15 13 11 8 6 7 6 6 9 11 11 12 11 11 10 10 10 10 9 8 7 7 6 6 5 7 9 12 11
4 2 4 5 5 5 2 3 4 0 7 4 2 8 9 19 11 10 13 11 13 12 13 10 8 7 7 6 7 9 11 11 10 8 8 6 4 5 6 7 7 6 5 4 5 10 13 12 15
4 4 7 6 8 2 6 3 5 4 5 4 5 9 21 20 14 16 16 13 13 14 13 12 10 9 9 7 6 6 6 5 5 5 6 4 4 5 6 5 7 6 5 5 7 13 12 10 6
6 5 4 7 4 6 7 6 3 7 3 6 11 14 18 18 11 15 14 14 12 14 11 12 10 11 11 8 4 3 3 3 3 5 5 5 5 3 3 2 1 1 3 1 5 7 6 8 7
4 7 6 8 4 5 7 7 3 6 6 11 20 20 17 15 14 16 14 15 14 13 11 13 13 11 6 7 6 5 4 3 3 4 6 4 3 3 3 3 3 3 3 6 6 6 7 9 11
17 4 5 11 8 10 8 8 5 8 7 12 17 19 21 14 13 10 11 13 13 12 8 13 12 11 9 8 6 5 5 4 5 4 5 4 4 4 4 3 3 4 4 5 6 6 7 9 8
15 18 11 10 12 9 13 10 2 5 4 17 19 17 19 16 12 9 12 15 16 13 10 11 11 9 11 7 6 5 5 5 4 4 5 5 3 4 4 4 4 4 4 5 5 6 7 7 7
12 10 18 11 11 6 7 12 8 8 8 18 16 15 16 16 9 16 14 17 18 14 13 12 11 9 10 8 6 6 5 5 5 4 5 5 2 4 5 4 4 3 3 6 7 7 7 7 7
18 5 7 16 10 8 5 9 10 7 13 14 14 13 15 16 16 13 8 15 15 13 15 12 12 10 10 7 6 6 5 5 4 4 4 6 5 5 5 4 3 3 3 4 5 6 5 6 7
15 12 15 17 14 6 11 6 15 7 14 13 14 15 15 15 16 15 11 14 15 16 16 14 11 11 10 8 6 6 7 5 4 4 4 6 5 6 5 4 3 4 4 4 5 4 6 6 5
19 25 21 22 20 18 10 12 9 7 15 17 15 15 16 17 21 19 15 15 14 14 15 15 11 10 10 7 5 4 4 4 5 4 4 6 5 6 5 4 5 4 4 4 3 5 4 5 5
15 12 20 14 14 15 16 11 14 15 12 16 15 15 16 19 17 16 14 15 14 14 15 16 14 11 10 8 6 6 5 3 3 3 6 6 5 6 5 4 5 4 4 5 6 4 6 3 5
19 14 18 4 14 6 5 14 14 12 12 16 18 18 19 15 15 15 12 14 17 17 17 16 16 14 11 9 4 4 4 3 3 3 4 5 6 5 5 6 5 6 4 5 5 6 3 3 4
17 22 18 11 5 12 3 13 14 8 7 9 14 19 17 21 20 19 19 16 15 17 18 18 18 16 13 10 7 5 5 5 3 2 2 3 6 5 6 6 5 5 4 5 4 5 6 4 1
18 15 14 11 14 10 18 9 25 13 12 11 14 14 19 21 20 18 20 20 17 18 16 17 17 17 14 14 11 14 11 7 4 4 4 4 6 6 6 6 5 6 4 5 4 4 3 5 4
15 14 14 15 14 5 12 10 15 16 22 19 18 10 18 21 22 22 23 23 20 18 16 17 17 16 15 16 15 12 10 5 4 4 7 5 5 6 6 6 7 6 4 5 5 4 5 3 4
9 13 5 2 12 9 12 14 12 24 25 16 16 17 15 20 21 23 23 18 18 13 14 14 17 17 17 17 16 17 14 9 7 7 7 6 4 3 5 6 5 6 6 6 5 5 5 4 5
9 13 3 4 4 4 16 14 18 12 19 22 20 19 15 17 19 21 20 19 18 16 17 15 17 18 18 19 16 17 15 13 12 11 9 9 6 4 6 6 6 5 5 6 6 6 5 5 5
15 11 4 6 5 4 6 15 12 18 14 8 19 19 20 16 18 20 23 23 22 22 19 20 19 19 18 19 16 14 15 10 8 10 9 8 8 7 9 6 7 7 7 6 6 4 4 6 5
3 8 2 6 2 3 6 3 6 8 9 8 9 10 18 19 16 20 20 22 21 20 21 21 20 18 17 19 14 15 13 13 12 12 9 7 6 6 9 8 7 7 7 7 7 5 6 6 4
5 9 5 1 5 4 3 4 6 6 16 10 8 9 15 13 16 12 17 19 18 17 17 17 17 17 14 15 13 13 14 12 11 11 11 10 8 10 11 8 8 7 7 7 7 5 5 6 4
4 4 3 4 1 4 3 5 2 6 5 9 5 6 8 8 7 7 8 8 9 8 12 13 13 12 12 12 11 12 11 11 10 10 10 11 10 11 11 10 9 9 8 7 7 6 7 7 6
4 4 4 4 5 1 1 3 3 4 6 6 3 7 4 6 7 6 7 7 7 9 8 8 7 8 8 8 10 12 11 10 10 10 10 11 11 8 11 10 9 9 8 8 8 8 7 8 7
Wind_Direction
302 133 97 21 56 71 256 278 6 95 54 1 86 93 114 41 56 153 103 119 128 129 127 121 121 117 113 109 105 105 107 109 109 117 107 105 103 102 92 88 87 82 76 71 71 68 63 61 59
297 250 60 52 100 111 278 239 303 160 142 96 78 129 54 73 60 110 100 129 129 132 129 123 123 123 120 115 111 111 112 113 106 99 111 118 110 99 92 90 86 78 75 72 72 68 65 63 60
265 208 81 137 189 178 205 273 308 120 120 102 92 57 92 111 94 137 127 128 126 129 130 129 128 127 126 122 116 112 112 113 112 105 93 97 98 93 90 88 84 78 76 75 68 73 71 64 52
29 10 24 151 225 259 177 306 242 124 75 102 117 65 67 189 122 136 134 132 135 131 131 132 133 133 128 123 122 119 116 114 109 108 101 102 98 95 93 92 88 83 80 75 73 72 70 61 47
30 73 139 221 250 258 17 246 234 118 144 125 110 91 91 35 126 130 132 129 130 132 131 133 132 130 130 129 127 124 121 117 114 110 107 105 103 101 99 96 94 89 89 84 82 80 72 59 49
23 137 128 222 248 273 159 245 196 148 166 134 87 104 102 141 126 140 124 119 125 130 132 134 131 131 133 131 131 129 125 121 118 114 112 111 108 105 101 99 96 95 92 91 86 77 67 55 42
134 97 213 223 245 295 184 217 180 176 176 158 142 100 137 139 148 139 131 125 129 130 126 131 133 130 128 131 136 136 129 125 120 119 121 119 111 108 104 100 101 99 97 91 83 75 68 65 57
103 103 234 227 224 263 275 209 183 158 203 121 141 160 169 186 158 136 137 129 132 134 134 132 130 129 128 122 113 116 126 126 127 132 135 132 128 124 118 110 111 110 106 102 102 95 88 75 68
8 96 207 213 176 233 307 212 324 176 117 68 71 150 166 162 147 125 137 135 133 142 147 146 146 145 137 127 124 123 130 141 146 147 148 136 142 144 142 151 141 136 140 140 118 91 99 76 68
170 187 209 210 237 10 319 288 194 116 126 66 69 79 136 154 159 154 149 153 147 150 155 155 158 160 154 147 148 145 149 158 166 162 163 161 195 178 154 165 164 160 197 176 127 94 90 89 74
187 205 231 270 299 12 309 311 247 125 209 189 153 139 150 157 165 159 150 159 156 154 162 164 161 164 163 145 162 167 168 165 177 179 174 179 155 154 139 130 65 245 213 334 92 84 68 71 79
178 221 247 280 1 321 292 329 306 196 189 157 156 155 157 167 172 164 152 161 163 166 164 164 160 167 158 150 169 177 167 175 170 177 168 130 152 176 130 130 136 85 62 58 84 91 91 82 80
209 253 265 275 326 302 265 261 214 263 223 135 142 153 166 171 172 164 148 156 164 175 164 166 158 165 164 164 169 171 170 160 161 157 163 143 161 108 111 108 83 76 60 80 93 91 92 89 91
175 220 256 286 293 292 294 267 68 278 197 140 151 164 172 174 166 157 161 163 170 177 168 162 160 157 160 160 165 163 163 166 162 167 166 144 140 144 117 86 86 89 91 86 106 108 96 95 93
137 190 234 257 262 261 297 276 221 250 143 150 164 164 172 182 177 180 174 173 171 176 165 163 165 159 158 168 164 160 172 159 161 161 153 128 127 105 105 114 106 114 101 108 117 106 108 111 106
191 177 191 220 229 230 193 266 244 221 149 165 161 166 172 185 193 194 181 175 171 162 167 167 172 169 166 164 158 160 159 153 145 137 123 118 102 131 116 122 124 130 106 129 119 121 131 123 120
179 202 200 234 237 243 179 252 251 219 170 166 171 173 177 183 191 204 196 179 168 167 169 172 170 168 168 160 155 154 162 149 141 131 129 131 121 119 122 134 143 127 113 131 131 118 132 119 103
189 206 192 206 202 237 224 244 268 231 182 180 180 178 180 187 194 192 194 178 170 168 174 173 171 166 163 157 143 144 151 139 139 135 141 142 141 135 135 137 132 134 125 123 114 127 136 119 136
200 208 205 204 221 203 221 234 239 257 217 185 180 181 187 195 189 187 188 177 168 169 170 177 170 171 164 166 155 159 165 134 90 135 140 147 157 150 142 140 128 138 137 148 146 127 121 93 129
188 191 203 148 198 235 251 234 244 241 215 196 185 188 189 177 180 182 177 177 178 178 178 177 181 174 174 170 158 145 137 110 127 137 123 142 149 150 150 150 151 148 135 133 154 136 125 115 184
193 194 188 187 103 213 324 271 256 250 221 209 197 191 184 181 183 186 190 184 183 183 183 182 181 176 176 162 134 104 78 71 103 171 139 172 162 155 145 152 146 152 140 151 153 149 152 148 156
209 182 168 169 169 207 186 246 237 232 238 208 201 184 182 187 189 186 189 192 189 191 183 181 181 178 176 164 166 168 176 171 187 160 151 173 180 162 149 141 150 145 150 148 149 150 159 130 157
216 192 192 170 180 170 194 230 234 213 228 209 207 187 188 188 187 187 192 194 191 186 183 181 178 180 178 180 175 173 175 161 136 136 157 170 173 156 155 154 154 144 146 143 149 142 146 147 144
127 109 78 139 195 227 204 198 219 221 213 205 202 204 187 192 190 190 190 184 191 184 178 176 178 182 183 183 176 179 174 157 151 155 167 171 168 159 157 152 152 145 145 147 153 144 139 136 116
156 153 135 135 196 221 176 205 226 212 205 201 195 204 188 189 192 191 182 183 186 182 180 178 179 187 185 184 180 182 175 169 172 169 173 170 168 169 182 164 160 150 151 140 139 133 128 130 134
165 161 161 149 188 154 180 227 239 247 252 231 206 206 199 182 193 192 186 188 187 188 184 185 186 187 184 186 182 179 174 169 171 177 175 187 186 170 159 168 154 152 146 134 132 123 123 126 124
191 155 67 114 14 126 210 282 300 221 248 210 210 200 207 199 189 190 191 190 189 190 192 190 187 189 185 186 175 178 172 168 174 177 178 179 160 160 151 166 150 153 143 144 139 136 137 127 129
168 144 128 329 155 205 261 262 218 226 230 211 207 206 212 211 201 186 192 190 189 191 191 188 188 186 179 179 175 168 169 170 164 169 174 168 161 161 156 162 150 154 146 147 140 139 138 132 131
122 124 85 98 155 184 136 258 302 298 312 233 222 198 177 161 185 179 172 171 165 157 167 169 159 155 165 163 156 154 157 163 158 169 170 166 158 160 158 163 155 158 155 154 144 145 148 144 148
331 164 153 153 178 134 114 300 320 303 345 11 30 143 133 116 109 98 103 113 129 144 144 153 142 148 158 149 149 155 152 155 160 166 165 157 157 154 158 158 159 160 160 158 153 160 160 156 160